Morrisville, VT

8:05 PM EDT on April 21, 2018 (GMT -0400)
Morrisville Stowe State

Weather History for KMVL - October, 2011

Change the Weather History Date:

Wednesday, October 5, 2011

  Actual Average Record
Temperature  
Mean Temperature 44 °F 50 °F  
Max Temperature 56 °F 61 °F 80 °F (2005)
Min Temperature 32 °F 38 °F 23 °F (1996)
Degree Days  
Heating Degree Days 21 15  
Month to date heating degree days 68 73  
Since 1 July heating degree days 224 405  
Cooling Degree Days 0 0  
Month to date cooling degree days 0 0  
Year to date cooling degree days 337 265  
Moisture  
Dew Point 42 °F    
Average Humidity 67    
Maximum Humidity 96    
Minimum Humidity 38    
Precipitation  
Precipitation T in 0.12 in 0.53 in (1949)
Month to date precipitation 0.78 0.57  
Year to date precipitation 31.51 27.70  
Sea Level Pressure  
Sea Level Pressure 30.09 in    
Wind  
Wind Speed 7 mph (NNW)    
Max Wind Speed 24 mph    
Max Gust Speed 33 mph    
Visibility 10 miles    
Events      
T = Trace of Precipitation, MM = Missing Value Source: NWS Daily Summary

Daily Weather History Graph

Daily Weather History Graph

Search for Another Location

Airport or City:

Astronomy

Oct. 05, 2011 Rise Set
Actual Time 6:52 AM EDT 6:24 PM EDT
Civil Twilight 6:23 AM EDT 6:53 PM EDT
Nautical Twilight 5:49 AM EDT 7:26 PM EDT
Astronomical Twilight 5:15 AM EDT 8:00 PM EDT
Moon 3:15 PM EDT (10/5) 12:21 AM EDT (10/5)
Length of Visible Light 12h 29m
Length of Day
11h 31m
Waxing Gibbous, 66% of the Moon is Illuminated
Oct 5
Waxing Gibbous
Oct 11
Full
Oct 19
Last Quarter
Oct 26
New
Nov 2
First Quarter

Hourly Weather History & Observations

Time (EDT) Temp. Windchill Dew Point Humidity Pressure Visibility Wind Dir Wind Speed Gust Speed Precip Events Conditions
12:24 AM 51.8 °F - 48.2 °F 88% 30.03 in 10.0 mi North 6.9 mph - N/A   Overcast
12:54 AM 53.1 °F - 48.0 °F 83% 30.04 in 10.0 mi North 4.6 mph - N/A   Overcast
1:16 AM 53.6 °F - 48.2 °F 82% 30.03 in 10.0 mi NNW 9.2 mph - N/A   Overcast
1:28 AM 51.8 °F - 48.2 °F 88% 30.03 in 10.0 mi NNW 10.4 mph - N/A   Overcast
1:35 AM 51.8 °F - 48.2 °F 88% 30.02 in 10.0 mi NNW 10.4 mph - N/A   Overcast
1:52 AM 50.0 °F - 48.2 °F 94% 30.02 in 10.0 mi NNW 10.4 mph 18.4 mph N/A   Overcast
1:54 AM 50.0 °F - 48.0 °F 93% 30.03 in 10.0 mi NNW 8.1 mph 18.4 mph N/A   Overcast
2:54 AM 50.0 °F - 46.9 °F 89% 30.04 in 10.0 mi NNW 13.8 mph 23.0 mph N/A   Mostly Cloudy
3:12 AM 50.0 °F - 46.4 °F 87% 30.03 in 10.0 mi NNW 16.1 mph 21.9 mph N/A   Overcast
3:54 AM 50.0 °F - 46.0 °F 86% 30.04 in 10.0 mi North 8.1 mph - N/A   Overcast
4:54 AM 50.0 °F - 45.0 °F 83% 30.04 in 10.0 mi NNE 4.6 mph - N/A   Overcast
5:16 AM 48.2 °F - 44.6 °F 87% 30.03 in 10.0 mi NNE 4.6 mph - N/A   Mostly Cloudy
5:54 AM 48.9 °F - 46.0 °F 90% 30.04 in 10.0 mi Calm Calm - N/A   Overcast
6:54 AM 50.0 °F - 45.0 °F 83% 30.04 in 10.0 mi NNW 3.5 mph - N/A   Overcast
7:54 AM 50.0 °F - 46.0 °F 86% 30.05 in 10.0 mi Calm Calm - N/A   Overcast
8:45 AM 48.2 °F - 44.6 °F 87% 30.04 in 10.0 mi NNW 6.9 mph - 0.00 in   Overcast
8:54 AM 48.9 °F - 46.0 °F 90% 30.06 in 10.0 mi NNW 5.8 mph - 0.00 in   Overcast
9:34 AM 51.8 °F - 46.4 °F 82% 30.05 in 10.0 mi NW 9.2 mph - N/A   Overcast
10:41 AM 51.8 °F - 46.4 °F 82% 30.07 in 10.0 mi NNW 13.8 mph 20.7 mph N/A   Mostly Cloudy
10:54 AM 53.1 °F - 46.0 °F 77% 30.08 in 10.0 mi North 13.8 mph 21.9 mph N/A   Mostly Cloudy
11:36 AM 53.6 °F - 46.4 °F 77% 30.07 in 10.0 mi NW 10.4 mph 18.4 mph N/A   Mostly Cloudy
11:54 AM 55.0 °F - 45.0 °F 69% 30.09 in 10.0 mi NNW 10.4 mph 20.7 mph N/A   Scattered Clouds
12:54 PM 54.0 °F - 39.0 °F 57% 30.12 in 10.0 mi North 16.1 mph 25.3 mph N/A   Mostly Cloudy
1:54 PM 54.0 °F - 36.0 °F 51% 30.13 in 10.0 mi NNW 21.9 mph 33.4 mph N/A   Partly Cloudy
2:54 PM 54.0 °F - 34.0 °F 47% 30.16 in 10.0 mi NNW 23.0 mph 31.1 mph N/A   Partly Cloudy
3:54 PM 54.0 °F - 30.9 °F 41% 30.17 in 10.0 mi North 13.8 mph 21.9 mph N/A   Clear
4:54 PM 53.1 °F - 28.0 °F 38% 30.19 in 10.0 mi North 9.2 mph 18.4 mph N/A   Clear
5:54 PM 52.0 °F - 26.1 °F 37% 30.22 in 10.0 mi North 10.4 mph 19.6 mph N/A   Clear
6:54 PM 45.0 °F - 32.0 °F 60% 30.23 in 10.0 mi Calm Calm - N/A   Clear
7:54 PM 39.9 °F - 33.1 °F 77% 30.25 in 10.0 mi Calm Calm - N/A   Clear
10:54 PM 34.0 °F 31.0 °F 32.0 °F 92% 30.27 in 10.0 mi SSW 3.5 mph - N/A   Clear
11:54 PM 32.0 °F - 30.0 °F 92% 30.28 in 10.0 mi Calm Calm - N/A   Clear